Location: B�rgermoos
(47.6500°N, 9.0667°E)
Time: 16:04:46
(UTC+00:00)

Vanguard 1 - Pass Details

Date: 07 August 2021
Orbit: 652 x 3831 km, 34.3° (Epoch: 17 September)

Event Time Altitude Azimuth Distance (km) Brightness Sun altitude
Rises 08:18:54 0° 218° (SW) 3,016 12.5 40.0°
Reaches altitude 10° 08:22:34 10° 187° (S) 2,046 12.0 40.6°
Maximum altitude 08:24:25 12° 162° (SSE) 1,924 12.2 40.9°
Drops below altitude 10° 08:26:20 10° 137° (SE) 2,152 12.8 41.2°
Sets 08:30:27 0° 107° (ESE) 3,366 13.7 41.8°
